CW9321 Weather Reports


Display with metric or nautical units.
time (UTC)temp
F
wind
direction
speed
MPH
gust
MPH
rain 1hr
in
rain 24hr
in
rain mn
in
humidity
%
barometer
mb
20181218133148 39 148 6.0 11.0 0.00 0.00 0.00 55 1008.8
20181218132647 39 147 6.0 14.0 0.00 0.00 0.00 55 1008.9
20181218132148 39 140 10.0 14.0 0.00 0.00 0.00 55 1009.1
20181218131648 39 171 6.0 12.0 0.00 0.00 0.00 55 1009.3
20181218131147 39 169 10.0 12.0 0.00 0.00 0.00 55 1009.3
20181218130648 39 184 9.0 12.0 0.00 0.00 0.00 56 1009.4
20181218130148 38 180 10.0 11.0 0.00 0.00 0.00 56 1009.4
20181218125648 38 178 6.0 11.0 0.00 0.00 0.00 56 1009.5
20181218125148 38 181 11.0 11.0 0.00 0.00 0.00 56 1009.6
20181218124647 38 157 3.0 11.0 0.00 0.00 0.00 56 1009.6
20181218124147 39 131 1.0 5.0 0.00 0.00 0.00 56 1010.0
20181218123647 39 131 0.0 5.0 0.00 0.00 0.00 56 1009.9
20181218123148 39 156 4.0 5.0 0.00 0.00 0.00 55 1009.8
20181218122647 39 146 0.0 3.0 0.00 0.00 0.00 55 1009.9
20181218122147 39 146 0.0 4.0 0.00 0.00 0.00 55 1009.9
20181218121648 39 146 0.0 6.0 0.00 0.00 0.00 55 1009.7
20181218121147 39 161 2.0 9.0 0.00 0.00 0.00 55 1009.7
20181218120647 39 183 6.0 12.0 0.00 0.00 0.00 55 1009.8
20181218120147 39 186 5.0 12.0 0.00 0.00 0.00 55 1009.8
20181218115647 39 185 5.0 9.0 0.00 0.00 0.00 54 1009.9
20181218115147 39 172 3.0 9.0 0.00 0.00 0.00 54 1009.9
20181218114647 40 174 1.0 5.0 0.00 0.00 0.00 53 1009.9
20181218114147 40 180 2.0 5.0 0.00 0.00 0.00 53 1009.9
20181218113647 40 159 3.0 5.0 0.00 0.00 0.00 53 1009.9
20181218113147 40 133 0.0 5.0 0.00 0.00 0.00 52 1010.0
20181218112647 40 150 3.0 6.0 0.00 0.00 0.00 52 1010.0
20181218112146 40 156 4.0 6.0 0.00 0.00 0.00 52 1009.9
20181218111647 40 184 4.0 6.0 0.00 0.00 0.00 52 1010.0
20181218111147 40 193 3.0 6.0 0.00 0.00 0.00 52 1010.1
20181218110647 40 171 5.0 5.0 0.00 0.00 0.00 52 1010.0
20181218110146 40 172 0.0 4.0 0.00 0.00 0.00 52 1010.1
20181218105646 41 191 2.0 5.0 0.00 0.00 0.00 51 1010.4
20181218105146 41 191 0.0 12.0 0.00 0.00 0.00 51 1010.4
20181218104646 40 201 4.0 12.0 0.00 0.00 0.00 52 1010.1
20181218104146 40 187 10.0 11.0 0.00 0.00 0.00 52 1010.1
20181218103646 40 186 1.0 6.0 0.00 0.00 0.00 53 1010.1
20181218103146 40 178 4.0 5.0 0.00 0.00 0.00 53 1010.3
20181218102646 40 150 3.0 3.0 0.00 0.00 0.00 54 1010.4
20181218102146 39 133 0.0 2.0 0.00 0.00 0.00 54 1010.1
20181218101646 39 132 2.0 2.0 0.00 0.00 0.00 54 1010.2
20181218101146 39 132 0.0 2.0 0.00 0.00 0.00 54 1010.0
20181218100646 39 132 0.0 3.0 0.00 0.00 0.00 54 1010.0
20181218100146 40 132 1.0 3.0 0.00 0.00 0.00 53 1010.1
20181218095646 40 295 1.0 2.0 0.00 0.00 0.00 54 1010.3
20181218095146 40 291 0.0 0.0 0.00 0.00 0.00 53 1010.3
20181218094646 40 313 0.0 2.0 0.00 0.00 0.00 53 1010.4
20181218094145 40 313 0.0 3.0 0.00 0.00 0.00 53 1010.3
20181218093645 40 304 1.0 4.0 0.00 0.00 0.00 53 1010.3
20181218093145 40 271 0.0 7.0 0.00 0.00 0.00 53 1010.4
20181218092645 40 290 1.0 7.0 0.00 0.00 0.00 53 1010.4
20181218092145 40 255 5.0 7.0 0.00 0.00 0.00 53 1010.5
20181218091645 40 105 0.0 3.0 0.00 0.00 0.00 53 1010.6
20181218091145 41 105 0.0 3.0 0.00 0.00 0.00 52 1010.6
20181218090645 41 80 0.0 1.0 0.00 0.00 0.00 52 1010.6
20181218090145 41 80 0.0 3.0 0.00 0.00 0.00 51 1010.7
20181218085645 42 80 1.0 4.0 0.00 0.00 0.00 51 1010.9
20181218085145 42 82 2.0 4.0 0.00 0.00 0.00 51 1011.0
20181218084645 42 122 2.0 5.0 0.00 0.00 0.00 51 1011.1
20181218084145 42 223 1.0 5.0 0.00 0.00 0.00 51 1011.0
20181218083645 42 234 2.0 7.0 0.00 0.00 0.00 51 1011.1
20181218083145 41 234 1.0 7.0 0.00 0.00 0.00 52 1010.8
20181218082645 41 241 5.0 7.0 0.00 0.00 0.00 52 1010.9
20181218082145 41 264 3.0 7.0 0.00 0.00 0.00 52 1010.9
20181218081645 41 274 4.0 7.0 0.00 0.00 0.00 52 1010.9
20181218081144 41 273 5.0 7.0 0.00 0.00 0.00 52 1011.0
20181218080645 41 269 6.0 6.0 0.00 0.00 0.00 52 1011.1
20181218080144 41 264 3.0 9.0 0.00 0.00 0.00 52 1011.3
20181218075645 41 261 5.0 11.0 0.00 0.00 0.00 53 1011.3
20181218075144 41 249 5.0 11.0 0.00 0.00 0.00 53 1011.3
20181218074645 41 264 6.0 10.0 0.00 0.00 0.00 53 1011.4
20181218074144 40 254 6.0 10.0 0.00 0.00 0.00 54 1011.4
20181218073645 40 255 7.0 10.0 0.00 0.00 0.00 54 1011.5
20181218073145 40 273 5.0 11.0 0.00 0.00 0.00 54 1011.6
20181218072644 40 265 6.0 11.0 0.00 0.00 0.00 54 1011.6
20181218072144 40 263 5.0 10.0 0.00 0.00 0.00 54 1011.7
20181218071644 40 277 5.0 10.0 0.00 0.00 0.00 54 1011.7
20181218071144 40 273 5.0 7.0 0.00 0.00 0.00 54 1011.9
20181218070645 40 280 5.0 11.0 0.00 0.00 0.00 54 1011.8
20181218070144 40 269 6.0 14.0 0.00 0.00 0.00 54 1011.9
20181218065644 40 279 11.0 14.0 0.00 0.00 0.00 54 1011.6
20181218065144 40 286 5.0 11.0 0.00 0.00 0.00 53 1011.6
20181218064644 41 269 6.0 12.0 0.00 0.00 0.00 53 1011.6
20181218064144 41 285 9.0 12.0 0.00 0.00 0.00 53 1011.6
20181218063644 41 273 7.0 12.0 0.00 0.00 0.00 53 1011.5
20181218063144 41 272 6.0 13.0 0.00 0.00 0.00 53 1011.5
20181218062644 41 272 6.0 13.0 0.00 0.00 0.00 52 1011.6
20181218062144 41 279 8.0 13.0 0.00 0.00 0.00 52 1011.7
20181218061643 41 277 11.0 13.0 0.00 0.00 0.00 52 1011.5
20181218061143 41 269 8.0 13.0 0.00 0.00 0.00 52 1011.7
20181218060644 42 275 11.0 13.0 0.00 0.00 0.00 51 1012.1
20181218060144 42 270 11.0 13.0 0.00 0.00 0.00 51 1011.9
20181218055644 42 275 11.0 13.0 0.00 0.00 0.00 51 1011.7
20181218055143 42 269 10.0 13.0 0.00 0.00 0.00 51 1011.7
20181218054643 42 259 10.0 17.0 0.00 0.00 0.00 51 1011.8
20181218054144 42 243 9.0 17.0 0.00 0.00 0.00 50 1011.6
20181218053644 42 269 15.0 16.0 0.00 0.00 0.00 50 1011.7
20181218053143 42 279 16.0 16.0 0.00 0.00 0.00 50 1011.7
20181218052643 42 273 10.0 13.0 0.00 0.00 0.00 50 1011.8
20181218052143 43 268 9.0 12.0 0.00 0.00 0.00 50 1012.1
20181218051644 43 277 7.0 13.0 0.00 0.00 0.00 50 1012.1
20181218051143 43 280 11.0 14.0 0.00 0.00 0.00 50 1012.1
20181218050643 43 281 7.0 14.0 0.00 0.00 0.00 50 1012.1
20181218050144 43 287 13.0 15.0 0.00 0.00 0.00 50 1012.1
20181218045644 43 300 11.0 15.0 0.00 0.00 0.00 50 1011.4
20181218045145 43 298 9.0 14.0 0.00 0.00 0.00 49 1011.4
20181218044643 44 304 10.0 11.0 0.00 0.00 0.00 48 1011.7
20181218044143 44 296 5.0 11.0 0.00 0.00 0.00 48 1011.6
20181218043643 44 280 5.0 14.0 0.00 0.00 0.00 48 1011.6
20181218043143 44 283 9.0 18.0 0.00 0.00 0.00 48 1011.6
20181218042643 44 244 13.0 18.0 0.00 0.00 0.00 48 1011.5
20181218042143 44 271 10.0 14.0 0.00 0.00 0.00 47 1011.4
20181218041644 44 262 10.0 16.0 0.00 0.00 0.00 47 1011.2
20181218041143 44 257 11.0 16.0 0.00 0.00 0.00 47 1011.2
20181218040643 44 266 7.0 11.0 0.00 0.00 0.00 47 1011.1
20181218040144 44 255 9.0 10.0 0.00 0.00 0.00 46 1011.1
20181218035643 45 261 5.0 10.0 0.00 0.00 0.00 46 1011.1
20181218035142 45 271 8.0 9.0 0.00 0.00 0.00 46 1011.0
20181218034643 45 243 5.0 9.0 0.00 0.00 0.00 46 1010.9
20181218034143 45 240 5.0 7.0 0.00 0.00 0.00 46 1011.0
20181218033643 45 257 7.0 7.0 0.00 0.00 0.00 46 1010.9
20181218033143 45 265 4.0 7.0 0.00 0.00 0.00 45 1011.1
20181218032643 45 265 5.0 7.0 0.00 0.00 0.00 46 1011.1
20181218032143 45 266 5.0 6.0 0.00 0.00 0.00 45 1011.1
20181218031643 45 269 4.0 6.0 0.00 0.00 0.00 45 1011.2
20181218031143 45 269 4.0 6.0 0.00 0.00 0.00 45 1011.1
20181218030642 45 257 0.0 8.0 0.00 0.00 0.00 45 1011.2
20181218030143 45 291 3.0 8.0 0.00 0.00 0.00 45 1011.3
20181218025643 45 280 6.0 9.0 0.00 0.00 0.00 45 1010.8
20181218025142 45 275 5.0 12.0 0.00 0.00 0.00 45 1011.0
20181218024642 45 302 6.0 12.0 0.00 0.00 0.00 45 1011.0
20181218024142 45 265 9.0 14.0 0.00 0.00 0.00 45 1011.0
20181218023643 45 263 12.0 15.0 0.00 0.00 0.00 44 1011.0
20181218023142 46 269 10.0 15.0 0.00 0.00 0.00 46 1011.2
20181218022642 46 272 9.0 11.0 0.00 0.00 0.00 44 1011.0
20181218022142 46 267 7.0 9.0 0.00 0.00 0.00 44 1011.0
20181218021642 46 290 6.0 10.0 0.00 0.00 0.00 44 1011.1
20181218021143 46 267 6.0 12.0 0.00 0.00 0.00 44 1011.1
20181218020642 46 257 7.0 12.0 0.00 0.00 0.00 44 1011.0
20181218020143 46 265 11.0 12.0 0.00 0.00 0.00 44 1011.1
20181218015643 46 267 10.0 12.0 0.00 0.00 0.00 43 1011.4
20181218015143 46 263 12.0 13.0 0.00 0.00 0.00 43 1011.4
20181218014642 46 259 11.0 13.0 0.00 0.00 0.00 43 1011.3
20181218014142 46 287 12.0 12.0 0.00 0.00 0.00 43 1011.3
20181218013642 46 295 7.0 12.0 0.00 0.00 0.00 43 1011.3
20181218013141 46 281 7.0 11.0 0.00 0.00 0.00 42 1011.4
20181218012642 47 275 9.0 12.0 0.00 0.00 0.00 42 1011.4
20181218012141 47 262 9.0 12.0 0.00 0.00 0.00 42 1011.2
20181218011642 47 265 6.0 10.0 0.00 0.00 0.00 41 1011.1
20181218011141 47 275 5.0 9.0 0.00 0.00 0.00 41 1011.0
20181218010642 47 275 3.0 11.0 0.00 0.00 0.00 41 1011.0
20181218010141 48 264 3.0 11.0 0.00 0.00 0.00 41 1011.3
20181218005641 48 273 9.0 11.0 0.00 0.00 0.00 41 1011.2
20181218005141 48 294 6.0 12.0 0.00 0.00 0.00 40 1011.0
20181218004641 48 287 2.0 14.0 0.00 0.00 0.00 40 1011.0
20181218004141 48 262 9.0 14.0 0.00 0.00 0.00 40 1011.0
20181218003641 48 275 8.0 14.0 0.00 0.00 0.00 40 1010.9
20181218003141 48 271 12.0 14.0 0.00 0.00 0.00 40 1011.0
20181218002641 48 284 11.0 14.0 0.00 0.00 0.00 40 1010.9
20181218002140 48 259 7.0 14.0 0.00 0.00 0.00 40 1010.9
20181218001640 48 272 6.0 14.0 0.00 0.00 0.00 41 1011.0
20181218001140 48 284 5.0 15.0 0.00 0.00 0.00 41 1011.0
20181218000640 48 275 8.0 15.0 0.00 0.00 0.00 41 1011.0
20181218000140 48 250 9.0 15.0 0.00 0.00 0.00 41 1010.9
20181217235640 47 286 10.0 15.0 0.00 0.00 0.00 41 1010.7
20181217235140 47 272 4.0 15.0 0.00 0.00 0.00 41 1010.7
20181217234640 47 258 6.0 15.0 0.00 0.00 0.00 41 1010.6
20181217234139 47 267 9.0 14.0 0.00 0.00 0.00 41 1010.6
20181217233640 47 264 12.0 13.0 0.00 0.00 0.00 41 1010.5
20181217233139 47 266 9.0 13.0 0.00 0.00 0.00 41 1010.5
20181217232640 48 267 7.0 12.0 0.00 0.00 0.00 41 1010.7
20181217232139 48 270 10.0 10.0 0.00 0.00 0.00 41 1010.7
20181217231639 48 274 7.0 9.0 0.00 0.00 0.00 40 1010.7
20181217231139 48 269 5.0 7.0 0.00 0.00 0.00 40 1010.5
20181217230639 48 263 4.0 6.0 0.00 0.00 0.00 40 1010.5
20181217230139 47 247 4.0 5.0 0.00 0.00 0.00 40 1010.1
20181217225639 47 241 4.0 5.0 0.00 0.00 0.00 40 1010.5
20181217225140 47 253 3.0 5.0 0.00 0.00 0.00 40 1010.4
20181217224640 47 254 2.0 4.0 0.00 0.00 0.00 40 1010.5
20181217224140 47 253 3.0 4.0 0.00 0.00 0.00 40 1010.4
20181217223640 47 13 0.0 3.0 0.00 0.00 0.00 40 1010.4
20181217223139 47 13 0.0 3.0 0.00 0.00 0.00 40 1010.4
20181217222639 48 13 1.0 5.0 0.00 0.00 0.00 40 1010.5
20181217222139 48 13 3.0 6.0 0.00 0.00 0.00 39 1010.4
20181217221639 48 40 5.0 6.0 0.00 0.00 0.00 40 1010.4
20181217221140 48 154 0.0 2.0 0.00 0.00 0.00 39 1010.4
20181217220639 48 154 1.0 4.0 0.00 0.00 0.00 40 1010.3
20181217220141 49 154 0.0 4.0 0.00 0.00 0.00 39 1010.8
20181217215639 49 154 2.0 4.0 0.00 0.00 0.00 39 1010.8
20181217215140 49 161 3.0 4.0 0.00 0.00 0.00 39 1010.8
20181217214640 49 163 0.0 3.0 0.00 0.00 0.00 40 1010.8
20181217214140 49 165 2.0 4.0 0.00 0.00 0.00 40 1010.8
20181217213640 49 165 0.0 5.0 0.00 0.00 0.00 39 1010.8
20181217213140 49 181 4.0 5.0 0.00 0.00 0.00 39 1010.8
20181217212638 49 162 2.0 4.0 0.00 0.00 0.00 39 1010.8
20181217212139 48 155 0.0 5.0 0.00 0.00 0.00 39 1010.7
20181217211638 48 155 3.0 5.0 0.00 0.00 0.00 39 1010.6
20181217211140 48 161 4.0 5.0 0.00 0.00 0.00 40 1010.7
20181217210639 48 166 4.0 5.0 0.00 0.00 0.00 39 1010.6
20181217210139 48 184 0.0 5.0 0.00 0.00 0.00 39 1010.6
20181217205639 48 186 4.0 6.0 0.00 0.00 0.00 39 1010.4
20181217205139 48 155 4.0 6.0 0.00 0.00 0.00 39 1010.4
20181217204638 48 163 1.0 3.0 0.00 0.00 0.00 40 1010.6
20181217204138 48 163 1.0 4.0 0.00 0.00 0.00 40 1010.7
20181217203639 48 163 2.0 4.0 0.00 0.00 0.00 40 1010.7
20181217203138 48 187 0.0 3.0 0.00 0.00 0.00 41 1010.8
20181217202639 48 187 2.0 4.0 0.00 0.00 0.00 40 1010.8
20181217202138 48 187 1.0 4.0 0.00 0.00 0.00 40 1010.8
20181217201639 48 181 2.0 5.0 0.00 0.00 0.00 39 1010.8
20181217201138 48 176 1.0 5.0 0.00 0.00 0.00 39 1010.8
20181217200638 48 173 1.0 5.0 0.00 0.00 0.00 38 1010.8
20181217200138 48 148 2.0 3.0 0.00 0.00 0.00 39 1010.8
20181217195638 48 152 3.0 3.0 0.00 0.00 0.00 38 1010.8
20181217195138 48 152 0.0 3.0 0.00 0.00 0.00 39 1010.7
20181217194638 48 152 3.0 5.0 0.00 0.00 0.00 39 1010.8
20181217194138 48 152 0.0 5.0 0.00 0.00 0.00 39 1010.8
20181217193638 48 138 4.0 5.0 0.00 0.00 0.00 39 1010.9
20181217193137 47 146 2.0 6.0 0.00 0.00 0.00 39 1011.0
20181217192637 47 132 2.0 6.0 0.00 0.00 0.00 39 1011.1
20181217192137 47 148 3.0 8.0 0.00 0.00 0.00 40 1011.2
20181217191638 47 154 3.0 11.0 0.00 0.00 0.00 40 1011.3
20181217191137 47 156 3.0 12.0 0.00 0.00 0.00 40 1011.4
20181217190638 46 167 9.0 12.0 0.00 0.00 0.00 40 1011.2
20181217190137 46 174 4.0 7.0 0.00 0.00 0.00 41 1011.2
20181217185639 46 154 3.0 7.0 0.00 0.00 0.00 41 1011.2
20181217185137 46 152 6.0 8.0 0.00 0.00 0.00 40 1011.4
20181217184637 46 136 6.0 8.0 0.00 0.00 0.00 40 1011.4
20181217184137 46 152 2.0 6.0 0.00 0.00 0.00 40 1011.6
20181217183638 46 140 2.0 9.0 0.00 0.00 0.00 40 1011.8
20181217183137 45 140 4.0 11.0 0.00 0.00 0.00 40 1011.4
20181217182637 45 136 9.0 11.0 0.00 0.00 0.00 41 1011.4
20181217182137 45 171 3.0 13.0 0.00 0.00 0.00 41 1011.4
20181217181637 45 165 2.0 13.0 0.00 0.00 0.00 41 1011.6
20181217181137 45 168 3.0 7.0 0.00 0.00 0.00 41 1011.7
20181217180636 45 150 1.0 7.0 0.00 0.00 0.00 41 1011.8
20181217180136 45 150 4.0 11.0 0.00 0.00 0.00 41 1012.0
20181217175637 45 135 6.0 11.0 0.00 0.00 0.00 41 1012.3
20181217175137 45 147 6.0 11.0 0.00 0.00 0.00 41 1012.3
20181217174637 45 159 7.0 10.0 0.00 0.00 0.00 41 1012.3
20181217174137 45 146 7.0 10.0 0.00 0.00 0.00 42 1012.3
20181217173637 45 148 5.0 6.0 0.00 0.00 0.00 41 1012.3
20181217173137 45 169 2.0 8.0 0.00 0.00 0.00 41 1012.4
20181217172637 44 161 4.0 9.0 0.00 0.00 0.00 42 1012.1
20181217172137 44 191 8.0 9.0 0.00 0.00 0.00 42 1012.1
20181217171637 44 211 2.0 8.0 0.00 0.00 0.00 42 1012.1
20181217171136 43 146 2.0 6.0 0.00 0.00 0.00 44 1012.2
20181217170635 43 193 0.0 7.0 0.00 0.00 0.00 44 1012.2
20181217170135 42 164 2.0 7.0 0.00 0.00 0.00 44 1011.9
20181217165635 42 182 4.0 6.0 0.00 0.00 0.00 44 1012.0
20181217165135 41 138 4.0 5.0 0.00 0.00 0.00 45 1012.0
20181217164635 41 170 3.0 9.0 0.00 0.00 0.00 45 1011.9
20181217164136 41 182 1.0 10.0 0.00 0.00 0.00 44 1011.8
20181217163635 41 159 4.0 10.0 0.00 0.00 0.00 45 1011.8
20181217163135 41 153 6.0 13.0 0.00 0.00 0.00 45 1011.8
20181217162635 41 178 5.0 14.0 0.00 0.00 0.00 45 1011.8
20181217162135 41 195 13.0 14.0 0.00 0.00 0.00 45 1011.8
20181217161634 41 160 7.0 9.0 0.00 0.00 0.00 45 1011.7
20181217161135 41 157 3.0 6.0 0.00 0.00 0.00 45 1011.6
20181217160635 41 186 1.0 6.0 0.00 0.00 0.00 45 1011.7
20181217160205 41 155 2.0 6.0 0.00 0.00 0.00 45 1011.6
20181217155634 41 153 2.0 6.0 0.00 0.00 0.00 45 1011.7
20181217155135 41 124 5.0 5.0 0.00 0.00 0.00 44 1011.6
20181217154635 41 118 3.0 6.0 0.00 0.00 0.00 45 1011.6
20181217154134 41 132 5.0 7.0 0.00 0.00 0.00 45 1011.6
20181217153634 41 132 4.0 7.0 0.00 0.00 0.00 45 1011.6
20181217153134 41 141 5.0 7.0 0.00 0.00 0.00 45 1011.7
20181217152634 40 180 4.0 7.0 0.00 0.00 0.00 45 1011.4
20181217152134 40 159 3.0 7.0 0.00 0.00 0.00 46 1011.4
20181217151634 40 173 5.0 9.0 0.00 0.00 0.00 46 1011.5
20181217151134 40 165 4.0 9.0 0.00 0.00 0.00 47 1011.4
20181217150634 39 169 3.0 6.0 0.00 0.00 0.00 47 1011.4
20181217150204 39 184 2.0 5.0 0.00 0.00 0.00 47 1011.4
20181217145634 39 184 1.0 5.0 0.00 0.00 0.00 47 1011.4
20181217145134 39 183 4.0 5.0 0.00 0.00 0.00 47 1011.4
20181217144634 39 176 3.0 5.0 0.00 0.00 0.00 47 1011.3
20181217144133 39 157 3.0 4.0 0.00 0.00 0.00 47 1011.3
20181217143634 39 157 2.0 4.0 0.00 0.00 0.00 47 1011.4
20181217143134 39 144 3.0 5.0 0.00 0.00 0.00 47 1011.3
20181217142634 39 143 0.0 5.0 0.00 0.00 0.00 47 1011.3
20181217142133 39 162 5.0 6.0 0.00 0.00 0.00 47 1011.3
20181217141633 40 157 4.0 6.0 0.00 0.00 0.00 46 1011.3
20181217141133 40 157 3.0 6.0 0.00 0.00 0.00 46 1011.3
20181217140633 40 135 3.0 6.0 0.00 0.00 0.00 46 1011.4
20181217140203 40 134 6.0 6.0 0.00 0.00 0.00 46 1011.4
20181217135633 40 123 2.0 4.0 0.00 0.00 0.00 46 1011.8
20181217135133 40 138 2.0 6.0 0.00 0.00 0.00 46 1011.7
20181217134633 40 140 3.0 7.0 0.00 0.00 0.00 46 1011.8
20181217134133 40 142 5.0 7.0 0.00 0.00 0.00 45 1011.8
20181217133632 40 147 4.0 7.0 0.00 0.00 0.00 45 1011.7